Location: Ahausen
(50.4985°N, 8.2722°E)
Time: 01:20:11
(UTC+00:00)

Cosmos 858 Rocket - Pass Details

Date: 18 September 2020
Orbit: 756 x 774 km, 74.1° (Epoch: 23 October)

Event Time Altitude Azimuth Distance (km) Brightness Sun altitude
Rises 18:37:59 0° 200° (SSW) 3,219 7.8 -11.0°
Reaches altitude 10° 18:40:20 10° 200° (SSW) 2,295 7.0 -11.3°
Maximum altitude 18:45:33 84° 112° (ESE) 772 4.4 -12.1°
Drops below altitude 10° 18:50:47 10° 25° (NNE) 2,301 6.9 -12.9°
Sets 18:53:09 0° 25° (NNE) 3,229 7.7 -13.3°
